Rolla, ND

11:28 AM CDT on August 20, 2017 (GMT -0500)
Rolla

Weather History for K06D - October, 2012

Change the Weather History Date:

Tuesday, October 23, 2012

  Actual Average (KRUG) Record (KRUG)
Temperature  
Mean Temperature 40 °F -  
Max Temperature 46 °F 53 °F 78 °F (1963)
Min Temperature 35 °F 30 °F 14 °F (1976)
Degree Days  
Heating Degree Days 24    
Moisture  
Dew Point 41 °F    
Average Humidity 100    
Maximum Humidity 100    
Minimum Humidity 100    
Precipitation  
Precipitation 0.48 in - - ()
Sea Level Pressure  
Sea Level Pressure 29.73 in    
Wind  
Wind Speed 11 mph (SE)    
Max Wind Speed 20 mph    
Max Gust Speed 25 mph    
Visibility 7 miles    
Events Rain    
Averages and records for this station are not official NWS values.
T = Trace of Precipitation, MM = Missing Value Source: NWS Daily Summary

Daily Weather History Graph

Daily Weather History Graph

Search for Another Location

Airport or City:

Trip Planner

Search our weather history database for the weather conditions in past years. The results will help you decide how hot, cold, wet, or windy it might be!

Date:

Astronomy

Oct. 23, 2012 Rise Set
Actual Time 8:12 AM CDT 6:32 PM CDT
Civil Twilight 7:39 AM CDT 7:04 PM CDT
Nautical Twilight 7:02 AM CDT 7:41 PM CDT
Astronomical Twilight 6:26 AM CDT 8:18 PM CDT
Moon 3:43 PM CDT (10/23) 1:36 AM CDT (10/23)
Length of Visible Light 11h 25m
Length of Day
10h 20m
Waxing Gibbous, 67% of the Moon is Illuminated
Oct 23
Waxing Gibbous
Oct 29
Full
Nov 6
Last Quarter
Nov 13
New
Nov 20
First Quarter

Hourly Weather History & Observations

Time (CDT) Temp. Windchill Dew Point Humidity Pressure Visibility Wind Dir Wind Speed Gust Speed Precip Events Conditions
12:15 AM 35.6 °F 28.6 °F 35.6 °F 100% 29.93 in 5.0 mi NE 9.2 mph - 0.04 in Rain Rain
12:35 AM 35.6 °F 28.0 °F 35.6 °F 100% 29.92 in 10.0 mi ENE 10.4 mph - 0.06 in Rain Light Rain
1:15 AM 35.6 °F 27.1 °F 35.6 °F 100% 29.89 in 10.0 mi East 12.7 mph - 0.01 in Rain Light Rain
1:35 AM 35.6 °F 26.2 °F 35.6 °F 100% 29.86 in 10.0 mi ENE 15.0 mph 19.6 mph 0.01 in Rain Light Rain
1:55 AM 37.4 °F 27.8 °F 37.4 °F 100% 29.83 in 10.0 mi ENE 17.3 mph 24.2 mph 0.01 in   Overcast
2:35 AM 37.4 °F 28.9 °F 37.4 °F 100% 29.84 in 8.0 mi East 13.8 mph 19.6 mph 0.01 in Rain Light Rain
2:55 AM 37.4 °F 30.8 °F 37.4 °F 100% 29.86 in 9.0 mi ENE 9.2 mph - 0.04 in Rain Light Rain
3:15 AM 37.4 °F 32.1 °F 37.4 °F 100% 29.86 in 4.0 mi ENE 6.9 mph - 0.03 in Rain Rain
3:35 AM 37.4 °F 30.8 °F 37.4 °F 100% 29.83 in 3.0 mi East 9.2 mph - 0.08 in Rain Rain
3:55 AM 37.4 °F 28.2 °F 37.4 °F 100% 29.80 in 10.0 mi East 16.1 mph - 0.10 in Rain Light Rain
4:15 AM 37.4 °F 28.9 °F 37.4 °F 100% 29.79 in 10.0 mi East 13.8 mph 19.6 mph N/A   Overcast
4:35 AM 37.4 °F 29.3 °F 37.4 °F 100% 29.79 in 10.0 mi East 12.7 mph 21.9 mph N/A   Overcast
4:55 AM 37.4 °F 29.3 °F 37.4 °F 100% 29.79 in 3.0 mi East 12.7 mph 17.3 mph 0.03 in Rain Rain
5:15 AM 37.4 °F 30.3 °F 37.4 °F 100% 29.79 in 10.0 mi East 10.4 mph - N/A Rain Light Rain
5:55 AM 37.4 °F 28.9 °F 37.4 °F 100% 29.77 in 8.0 mi East 13.8 mph - 0.01 in Rain Light Rain
6:35 AM 37.4 °F 29.8 °F 37.4 °F 100% 29.76 in 5.0 mi East 11.5 mph - N/A Rain Light Rain
6:55 AM 39.2 °F 32.0 °F 39.2 °F 100% 29.75 in 4.0 mi East 11.5 mph 16.1 mph N/A Rain Light Rain
7:15 AM 39.2 °F 31.6 °F 39.2 °F 100% 29.74 in 8.0 mi East 12.7 mph - N/A Rain Light Rain
7:55 AM 39.2 °F 34.2 °F 39.2 °F 100% 29.74 in 1.5 mi ESE 6.9 mph - N/A Rain Light Rain
9:35 AM 41.0 °F 33.9 °F 41.0 °F 100% 29.68 in 1.5 mi ESE 12.7 mph - N/A Rain Light Rain
10:15 AM 41.0 °F 35.8 °F 41.0 °F 100% 29.72 in 3.0 mi SSE 8.1 mph - N/A Rain Light Rain
10:35 AM 41.0 °F 35.2 °F 41.0 °F 100% 29.71 in 2.5 mi SE 9.2 mph - 0.02 in Rain Light Rain
10:55 AM 41.0 °F 34.3 °F 41.0 °F 100% 29.69 in 1.2 mi SE 11.5 mph 16.1 mph 0.03 in Rain Light Rain
11:15 AM 41.0 °F 33.9 °F 41.0 °F 100% 29.69 in 1.8 mi SE 12.7 mph - 0.03 in Rain Rain
11:35 AM 41.0 °F 34.3 °F 41.0 °F 100% 29.68 in 8.0 mi SE 11.5 mph - 0.05 in Rain Light Rain
11:55 AM 42.8 °F 35.4 °F 42.8 °F 100% 29.68 in 2.5 mi SSE 15.0 mph - 0.05 in   Overcast
12:15 PM 42.8 °F 36.2 °F 42.8 °F 100% 29.68 in 1.2 mi SSE 12.7 mph 16.1 mph N/A Rain Light Rain
12:35 PM 42.8 °F 37.0 °F 42.8 °F 100% 29.68 in 9.0 mi SSE 10.4 mph - N/A Rain Light Rain
12:55 PM 44.6 °F 40.2 °F 44.6 °F 100% 29.67 in 7.0 mi SSE 8.1 mph - N/A Rain Light Rain
1:15 PM 44.6 °F 39.7 °F 44.6 °F 100% 29.67 in 9.0 mi SSE 9.2 mph - N/A Rain Light Rain
1:35 PM 44.6 °F 41.4 °F 44.6 °F 100% 29.66 in 2.5 mi South 5.8 mph - 0.01 in Rain Light Rain
1:55 PM 44.6 °F 41.4 °F 44.6 °F 100% 29.64 in 6.0 mi South 5.8 mph - 0.01 in Rain Light Rain
2:15 PM 44.6 °F 39.7 °F 44.6 °F 100% 29.65 in 6.0 mi South 9.2 mph - N/A Rain Light Rain
2:35 PM 44.6 °F 40.7 °F 44.6 °F 100% 29.65 in 1.5 mi South 6.9 mph - 0.04 in Rain Rain
3:15 PM 44.6 °F 43.1 °F 44.6 °F 100% 29.64 in 3.0 mi SW 3.5 mph - 0.02 in Rain Light Rain
3:35 PM 44.6 °F - 44.6 °F 100% 29.64 in 2.0 mi Calm Calm - 0.09 in Rain Rain
3:55 PM 44.6 °F 43.1 °F 44.6 °F 100% 29.65 in 2.0 mi SW 3.5 mph - 0.12 in Rain Light Rain
4:15 PM 44.6 °F - 44.6 °F 100% 29.64 in 10.0 mi Calm Calm - N/A Rain Light Rain
4:35 PM 44.6 °F - 44.6 °F 100% 29.64 in 10.0 mi Calm Calm - N/A Rain Light Rain
4:55 PM 44.6 °F 42.2 °F 44.6 °F 100% 29.64 in 10.0 mi WNW 4.6 mph - N/A Rain Light Rain
5:15 PM 46.4 °F 42.9 °F 46.4 °F 100% 29.65 in 10.0 mi West 6.9 mph - N/A Rain Light Rain
5:35 PM 44.6 °F 40.7 °F 44.6 °F 100% 29.66 in 10.0 mi WNW 6.9 mph - 0.01 in Rain Light Rain
5:55 PM 44.6 °F 41.4 °F 44.6 °F 100% 29.66 in 6.0 mi WNW 5.8 mph - 0.03 in Rain Light Rain
6:15 PM 44.6 °F 40.7 °F 44.6 °F 100% 29.66 in 10.0 mi NNW 6.9 mph - N/A Rain Light Rain
6:35 PM 44.6 °F 40.2 °F 44.6 °F 100% 29.67 in 10.0 mi NNW 8.1 mph - N/A Rain Light Rain
6:55 PM 44.6 °F 39.7 °F 44.6 °F 100% 29.66 in 10.0 mi North 9.2 mph - 0.01 in Rain Light Rain
7:15 PM 42.8 °F 38.0 °F 42.8 °F 100% 29.68 in 10.0 mi WNW 8.1 mph - N/A Rain Light Rain
7:35 PM 42.8 °F 37.5 °F 42.8 °F 100% 29.70 in 10.0 mi West 9.2 mph - N/A   Overcast
7:55 PM 42.8 °F 35.1 °F 42.8 °F 100% 29.71 in 10.0 mi WNW 16.1 mph 20.7 mph N/A   Overcast
8:15 PM 41.0 °F 32.5 °F 41.0 °F 100% 29.72 in 10.0 mi West 17.3 mph - N/A   Overcast
8:35 PM 41.0 °F 33.5 °F 41.0 °F 100% 29.72 in 10.0 mi WNW 13.8 mph - N/A   Overcast
8:55 PM 41.0 °F 34.3 °F 41.0 °F 100% 29.73 in 10.0 mi West 11.5 mph - N/A   Overcast
9:15 PM 41.0 °F 33.5 °F 41.0 °F 100% 29.73 in 10.0 mi WNW 13.8 mph - N/A   Overcast
9:35 PM 41.0 °F 34.3 °F 41.0 °F 100% 29.73 in 10.0 mi West 11.5 mph 16.1 mph N/A   Overcast
9:55 PM 41.0 °F 33.1 °F 41.0 °F 100% 29.74 in 10.0 mi West 15.0 mph 19.6 mph N/A   Overcast
10:15 PM 39.2 °F 30.5 °F 39.2 °F 100% 29.75 in 10.0 mi West 16.1 mph 20.7 mph N/A   Overcast
10:35 PM 39.2 °F 29.8 °F 39.2 °F 100% 29.76 in 10.0 mi West 18.4 mph 21.9 mph N/A   Overcast
10:55 PM 37.4 °F 27.5 °F 37.4 °F 100% 29.77 in 10.0 mi West 18.4 mph - N/A   Overcast
11:15 PM 37.4 °F 28.9 °F 37.4 °F 100% 29.77 in 10.0 mi West 13.8 mph - N/A   Overcast
11:35 PM 37.4 °F 28.2 °F 37.4 °F 100% 29.77 in 10.0 mi WNW 16.1 mph 20.7 mph N/A   Overcast
11:55 PM 37.4 °F 27.2 °F 37.4 °F 100% 29.76 in 10.0 mi WNW 19.6 mph 25.3 mph N/A   Overcast